Temp
57 64 66 65 67 69 63 62 55 61 65 65 69 72 75 81 82 82 81 81 81 79 87 90 89 88 89 89 88 85 83 82 80 80 80 78 78 79 80 80 80 80 79 80
51 63 65 64 68 70 70 71 68 70 67 74 74 76 75 77 81 79 78 81 80 81 84 86 84 85 87 87 85 84 83 82 82 78 79 78 78 79 79 79 79 79 79 79
43 58 60 54 62 67 69 71 69 61 70 74 70 74 70 71 75 75 77 79 78 79 81 81 82 86 86 86 85 83 82 82 80 81 78 78 79 78 79 78 78 78 79 79
43 49 40 59 71 73 70 69 70 72 73 73 73 75 76 74 72 70 71 73 75 77 78 79 83 84 83 84 85 81 81 81 81 81 79 78 78 78 78 77 78 77 78 77
40 42 53 62 67 64 59 56 65 65 64 71 73 73 68 72 73 69 69 70 72 76 77 78 81 84 84 82 82 82 81 81 81 81 79 79 78 77 80 78 77 78 78 76
44 40 41 52 65 72 69 49 61 68 64 68 68 60 61 69 69 68 69 69 69 73 78 77 77 78 83 82 81 79 82 82 81 81 81 79 79 79 78 78 77 79 78 75
43 43 50 58 65 69 52 49 59 65 63 65 61 61 64 67 65 66 68 67 68 69 75 74 74 77 80 81 80 81 82 83 82 82 81 80 79 79 80 78 78 77 76 73
44 41 41 61 61 52 54 60 61 63 66 64 66 67 65 63 63 63 63 64 65 65 71 72 71 72 76 78 81 82 82 81 81 81 84 83 81 80 79 78 77 76 74 73
45 44 55 59 60 61 62 60 61 62 63 67 66 64 63 63 63 62 61 62 64 65 65 66 67 69 67 69 72 80 80 79 79 80 81 81 81 79 79 78 78 76 75 73
48 51 54 57 60 60 63 65 64 65 64 65 63 64 61 62 61 59 60 60 62 62 63 62 64 66 65 66 69 75 78 78 79 80 79 79 82 81 81 79 79 77 75 73
48 47 54 57 59 58 61 64 66 67 66 63 63 63 64 62 59 59 59 59 60 59 59 61 62 63 65 64 67 71 77 78 78 80 80 78 79 76 82 82 80 79 75 74
40 47 47 52 57 59 57 59 63 63 63 63 63 64 65 63 61 60 59 59 59 59 59 59 60 63 64 65 67 69 73 78 77 78 79 78 70 65 52 51 52 60 62 72
45 50 51 54 59 57 56 57 60 62 63 61 64 64 65 64 62 60 61 60 59 58 59 59 59 61 62 65 67 70 72 74 77 76 79 76 73 72 67 57 48 47 55 58
50 50 49 56 52 55 55 57 59 64 65 62 63 64 64 64 64 63 61 62 61 59 59 60 59 59 60 61 68 69 69 61 72 77 77 78 77 74 71 72 70 65 49 49
48 51 53 55 54 52 54 56 56 58 63 61 62 60 62 62 62 62 63 64 64 61 59 60 59 59 61 61 66 67 67 66 71 73 74 73 75 76 75 77 73 64 60 52
48 51 54 53 50 51 52 53 54 56 61 61 61 60 62 62 61 62 61 63 60 56 61 61 60 61 61 62 63 66 66 63 65 68 70 72 74 75 74 72 71 70 66 59
45 45 47 50 48 49 50 52 53 55 58 60 60 61 61 60 59 58 58 59 60 58 58 60 61 62 60 61 61 63 66 66 63 66 67 68 68 68 72 71 71 70 64 59
46 46 47 48 47 48 50 52 53 54 57 59 60 61 59 58 57 56 54 57 57 56 58 59 61 62 61 60 61 62 63 64 64 65 65 65 64 65 66 69 69 67 63 55
47 45 47 48 49 50 50 50 52 53 54 59 59 58 57 55 58 55 54 54 54 54 55 58 61 59 62 60 62 63 61 60 61 62 63 61 63 62 62 63 63 65 64 62
47 48 48 48 50 50 49 50 51 52 53 58 59 57 52 52 53 54 53 52 52 52 56 58 58 57 57 60 63 63 61 60 60 59 60 61 60 59 60 54 58 58 59 60
48 48 49 49 49 50 50 50 50 51 53 57 57 56 52 52 52 54 52 52 53 56 59 59 58 55 56 61 65 63 61 60 60 59 59 58 57 56 56 56 56 55 54 54
52 50 49 51 51 51 52 52 53 52 53 53 55 56 54 52 52 52 52 51 54 55 59 60 59 57 58 63 62 61 60 60 59 59 59 58 56 55 54 53 53 52 53 52
55 54 55 54 53 53 56 56 56 56 55 55 55 55 52 52 53 51 50 54 54 54 57 59 58 56 59 59 61 59 59 59 61 59 58 57 57 56 55 54 54 54 52 52
54 54 53 55 56 55 52 55 57 56 56 57 57 55 53 53 53 55 55 56 55 55 57 57 57 56 59 58 60 60 60 57 57 60 60 55 60 58 56 54 54 54 54 52
53 54 54 53 53 52 53 55 56 56 57 56 57 57 57 56 53 54 55 56 56 57 57 56 57 57 60 58 58 57 55 56 55 57 57 56 57 58 58 57 56 54 54 52
52 52 52 54 53 53 54 54 53 54 55 54 55 55 57 55 55 55 57 56 55 56 56 56 56 58 59 58 58 57 55 55 55 56 56 55 55 54 55 56 55 53 52 52
54 52 55 53 56 54 54 52 52 51 51 52 52 54 57 56 55 55 55 55 55 55 54 55 56 56 58 57 59 57 55 54 52 54 54 52 52 52 52 53 53 52 52 50
MSLP
1007.73 1006.43 1005.03 1003.65 1002.51 1001.64 1001.43 1001.65 1001.95 1001.62 1001.60 1001.74 1001.64 1001.38 1001.84 1001.75 1002.00 1002.73 1003.45 1001.39 1001.54 1001.81 1002.04 1002.01 1002.62 1003.26 1004.07 1004.97 1005.86 1006.80 1007.90 1008.85 1009.48 1010.01 1010.63 1011.17 1011.75 1012.15 1012.57 1012.84 1013.01 1013.14 1013.46 1013.57
1008.47 1007.09 1005.57 1004.19 1002.91 1001.82 1001.09 1001.15 1001.29 1001.10 1001.73 1001.85 1002.75 1002.09 1002.08 1002.04 1001.93 1003.15 1003.95 1002.06 1001.98 1001.58 1001.27 1001.36 1002.35 1002.84 1003.54 1004.35 1005.25 1006.16 1007.23 1008.11 1008.92 1009.61 1010.16 1010.78 1011.30 1011.75 1012.18 1012.47 1012.74 1012.87 1013.23 1013.37
1009.17 1007.84 1006.45 1004.85 1003.23 1002.46 1001.97 1001.44 1001.39 1001.40 1002.17 1002.05 1004.00 1003.97 1003.99 1004.11 1004.70 1005.42 1004.15 1003.26 1003.14 1003.27 1002.83 1002.63 1002.50 1002.73 1003.32 1003.84 1004.73 1005.72 1006.68 1007.61 1008.33 1009.06 1009.73 1010.35 1010.83 1011.38 1011.87 1012.16 1012.42 1012.67 1012.92 1013.12
1010.35 1009.08 1007.46 1004.95 1003.46 1002.95 1002.83 1003.81 1003.16 1002.78 1003.01 1002.78 1003.67 1005.23 1005.33 1005.48 1005.86 1005.86 1005.77 1005.77 1005.10 1004.15 1003.31 1003.09 1003.15 1002.93 1003.45 1004.00 1004.63 1005.49 1006.34 1007.10 1007.80 1008.53 1009.31 1009.95 1010.54 1011.08 1011.47 1011.72 1012.05 1012.39 1012.61 1013.12
1011.25 1009.99 1008.07 1005.71 1005.51 1005.11 1005.03 1006.59 1006.29 1005.30 1005.12 1006.16 1005.42 1005.47 1006.66 1007.09 1007.08 1007.32 1006.99 1006.65 1006.25 1005.46 1004.45 1003.85 1003.71 1003.41 1003.38 1004.10 1004.68 1005.37 1005.99 1006.59 1007.27 1007.97 1008.77 1009.47 1010.06 1010.59 1010.96 1011.35 1011.70 1011.94 1012.27 1013.07
1012.02 1011.01 1009.21 1008.13 1007.05 1005.64 1005.42 1008.22 1008.40 1007.65 1006.73 1007.27 1006.54 1006.90 1008.42 1008.20 1008.40 1008.58 1008.25 1007.65 1007.09 1006.47 1005.43 1004.83 1004.83 1004.36 1003.57 1004.35 1004.84 1005.27 1005.67 1006.22 1006.81 1007.46 1008.19 1008.85 1009.40 1009.96 1010.32 1010.75 1011.19 1011.51 1012.10 1012.74
1012.56 1011.69 1009.75 1009.30 1008.15 1006.58 1007.57 1011.75 1010.34 1009.81 1009.76 1009.10 1008.30 1009.06 1009.46 1009.40 1009.74 1009.83 1009.67 1009.14 1008.46 1007.43 1006.56 1006.06 1005.63 1004.96 1004.28 1004.41 1004.72 1004.97 1005.37 1005.89 1006.46 1006.91 1007.59 1008.21 1008.87 1009.42 1009.84 1010.39 1010.85 1011.35 1011.95 1012.67
1012.78 1012.11 1011.60 1010.20 1009.31 1009.89 1011.58 1011.60 1011.32 1010.71 1010.72 1010.38 1009.59 1009.81 1010.36 1010.58 1010.75 1010.92 1010.74 1009.99 1009.17 1008.57 1007.54 1006.83 1006.46 1005.92 1005.51 1005.15 1004.87 1004.70 1005.09 1005.69 1006.15 1006.60 1007.09 1007.71 1008.34 1008.99 1009.49 1010.03 1010.57 1011.20 1011.94 1012.75
1013.35 1013.09 1012.73 1011.95 1012.07 1012.08 1011.69 1011.09 1011.37 1011.32 1011.11 1010.89 1010.91 1010.87 1010.93 1011.04 1011.15 1011.14 1010.99 1010.66 1010.11 1009.27 1008.60 1007.74 1007.23 1007.53 1007.40 1006.81 1005.89 1004.98 1005.09 1005.49 1005.91 1006.40 1006.85 1007.31 1008.01 1008.70 1009.31 1009.74 1010.25 1010.91 1011.61 1012.32
1014.71 1014.92 1014.15 1013.58 1013.23 1012.81 1012.11 1011.53 1011.56 1012.07 1012.23 1011.65 1011.41 1011.46 1011.67 1011.71 1011.89 1011.57 1010.87 1010.37 1009.93 1009.58 1009.21 1008.37 1008.14 1008.53 1008.65 1008.00 1006.93 1005.58 1005.37 1005.49 1005.66 1006.10 1006.66 1007.17 1007.75 1008.45 1009.01 1009.32 1009.63 1010.23 1011.04 1011.95
1016.65 1016.35 1015.37 1015.03 1014.75 1014.59 1013.80 1013.04 1012.98 1012.64 1012.52 1012.46 1012.29 1012.34 1012.47 1012.54 1012.84 1012.47 1011.71 1011.02 1010.69 1010.61 1010.09 1009.76 1009.37 1009.44 1009.36 1008.96 1007.73 1006.19 1005.57 1005.59 1005.75 1006.07 1006.50 1007.01 1007.64 1008.22 1008.56 1008.37 1008.58 1009.19 1010.23 1011.08
1018.95 1018.69 1018.20 1017.05 1016.13 1015.88 1015.50 1014.97 1014.23 1013.61 1012.85 1012.50 1012.41 1012.37 1012.16 1012.39 1013.04 1012.92 1012.46 1012.08 1011.81 1011.55 1011.17 1010.46 1008.91 1009.17 1010.45 1009.38 1008.35 1007.03 1006.14 1005.50 1005.51 1005.81 1006.27 1006.72 1007.63 1008.65 1008.95 1008.82 1008.71 1008.82 1009.47 1010.05
1019.80 1019.23 1018.61 1017.80 1016.90 1016.62 1016.23 1015.82 1015.13 1014.34 1013.63 1013.64 1013.40 1013.16 1013.10 1013.29 1013.65 1013.69 1013.51 1013.34 1013.13 1013.17 1012.67 1011.59 1011.37 1012.16 1011.67 1009.77 1008.22 1007.21 1006.51 1006.07 1005.47 1005.66 1005.98 1006.53 1007.08 1007.57 1008.55 1009.50 1009.10 1008.96 1009.27 1009.75
1019.85 1019.38 1018.47 1017.54 1017.60 1017.43 1017.06 1016.24 1015.33 1014.46 1014.13 1014.08 1013.83 1013.63 1013.69 1013.84 1014.30 1014.47 1014.34 1014.28 1014.14 1013.75 1013.50 1013.51 1013.27 1012.26 1010.63 1009.79 1008.51 1007.05 1006.99 1006.43 1006.18 1005.51 1005.34 1005.86 1006.45 1007.21 1007.82 1008.35 1009.05 1009.90 1010.32 1010.51
1019.67 1018.98 1018.29 1017.80 1017.79 1017.87 1017.43 1016.76 1016.10 1015.64 1014.92 1014.79 1014.63 1014.51 1014.62 1014.69 1014.98 1015.13 1015.17 1015.02 1014.83 1014.51 1013.94 1013.32 1012.74 1012.04 1011.24 1010.55 1009.49 1007.71 1007.53 1007.07 1006.42 1005.93 1005.81 1005.78 1005.85 1006.37 1007.09 1007.77 1008.55 1009.79 1010.80 1011.54
1019.66 1018.97 1018.48 1018.29 1018.47 1018.15 1017.73 1017.07 1017.22 1016.59 1015.53 1015.48 1015.21 1015.25 1015.24 1015.44 1015.64 1015.63 1015.69 1015.66 1015.36 1015.16 1014.63 1013.93 1013.37 1012.78 1012.15 1010.99 1009.68 1008.67 1007.90 1007.55 1007.35 1006.95 1006.96 1006.37 1005.70 1005.52 1006.04 1006.97 1008.46 1010.05 1010.66 1011.43
1019.83 1019.62 1019.35 1018.95 1019.09 1018.81 1018.59 1018.13 1018.01 1017.26 1016.28 1016.11 1015.81 1015.88 1015.98 1016.24 1016.34 1016.51 1016.27 1016.04 1015.88 1015.60 1015.01 1014.28 1013.63 1012.74 1011.78 1010.67 1009.63 1009.61 1008.59 1007.31 1006.63 1006.88 1007.05 1004.97 1008.01 1007.09 1005.23 1008.47 1008.23 1010.24 1011.62 1011.81
1020.61 1020.62 1020.40 1020.10 1019.87 1019.39 1018.81 1018.36 1018.28 1017.66 1017.21 1016.66 1016.24 1016.41 1016.69 1016.76 1017.13 1017.27 1017.11 1016.81 1016.32 1015.83 1015.07 1014.34 1013.69 1012.73 1012.19 1011.52 1010.78 1010.33 1009.78 1007.64 1006.79 1010.99 1009.99 1009.97 1009.71 1008.91 1009.08 1009.92 1010.08 1011.27 1012.27 1012.57
1020.95 1020.91 1020.68 1020.38 1020.11 1019.53 1019.29 1019.09 1018.99 1018.73 1018.09 1017.19 1016.98 1017.22 1017.35 1017.69 1017.92 1017.89 1017.68 1017.49 1017.01 1016.39 1015.83 1014.95 1014.15 1013.35 1012.69 1012.24 1011.57 1011.26 1010.66 1009.37 1010.89 1011.22 1011.48 1011.84 1011.93 1012.08 1012.15 1011.61 1011.86 1012.27 1012.64 1012.49
1021.56 1021.36 1021.12 1020.83 1020.24 1019.49 1019.63 1019.88 1019.47 1019.35 1018.71 1017.50 1017.65 1017.78 1018.01 1018.57 1018.62 1018.47 1018.17 1018.03 1017.65 1017.06 1016.43 1015.71 1014.90 1014.24 1013.59 1013.07 1012.58 1012.12 1012.02 1012.21 1012.40 1012.31 1012.20 1012.52 1012.97 1013.72 1014.09 1013.43 1013.05 1013.04 1012.57 1014.22
1021.39 1021.53 1021.25 1020.87 1020.74 1020.49 1020.51 1020.37 1020.20 1020.27 1019.28 1018.23 1018.03 1018.21 1019.07 1019.10 1019.00 1018.93 1018.75 1018.46 1018.04 1017.28 1016.71 1016.13 1015.56 1015.14 1014.45 1013.89 1013.68 1013.60 1013.59 1013.46 1013.57 1013.56 1013.79 1014.19 1014.17 1014.85 1015.57 1014.97 1014.43 1012.51 1013.09 1014.53
1020.48 1020.77 1021.01 1020.88 1020.77 1020.69 1020.77 1020.15 1020.85 1020.65 1019.62 1019.10 1018.82 1018.78 1019.47 1019.75 1019.52 1019.51 1019.29 1019.06 1018.43 1017.85 1017.32 1016.81 1016.24 1015.61 1015.19 1015.01 1014.75 1014.50 1014.49 1014.65 1014.83 1015.15 1015.42 1015.50 1015.49 1015.43 1015.37 1014.69 1014.34 1014.11 1016.83 1016.92
1019.69 1019.82 1019.89 1019.99 1020.02 1020.06 1019.81 1020.03 1020.55 1019.95 1019.77 1019.75 1019.06 1019.73 1020.34 1019.77 1019.75 1019.90 1019.65 1019.28 1018.75 1018.37 1017.99 1017.53 1016.84 1016.23 1015.95 1015.94 1016.06 1016.06 1016.01 1015.91 1015.73 1015.74 1015.91 1016.11 1016.18 1016.24 1016.11 1015.89 1016.25 1017.26 1017.26 1017.80
1019.75 1019.77 1019.87 1019.63 1019.48 1019.71 1019.98 1019.95 1019.83 1019.73 1019.75 1019.61 1019.31 1019.93 1020.19 1020.10 1020.02 1019.82 1019.69 1019.39 1019.20 1019.01 1018.59 1018.11 1017.62 1017.09 1016.73 1016.74 1017.08 1016.95 1016.83 1016.75 1016.69 1016.71 1016.88 1016.89 1016.91 1017.01 1017.21 1017.35 1017.98 1018.46 1018.56 1018.79
1019.94 1019.81 1019.86 1019.89 1019.66 1019.93 1019.92 1019.65 1019.61 1019.77 1020.02 1019.98 1020.17 1020.38 1020.12 1020.13 1020.24 1020.15 1020.02 1019.95 1019.77 1019.61 1019.19 1018.68 1018.36 1018.09 1017.61 1017.34 1017.57 1017.77 1017.79 1017.75 1017.61 1017.58 1017.64 1017.74 1017.76 1017.61 1017.76 1018.23 1018.75 1019.07 1019.22 1019.42
1020.02 1019.93 1020.15 1020.01 1019.98 1020.05 1020.02 1020.05 1020.34 1020.48 1020.46 1020.47 1020.46 1020.73 1020.41 1020.33 1020.23 1020.19 1020.12 1020.11 1020.17 1020.07 1019.73 1019.42 1019.28 1019.05 1018.73 1018.19 1018.09 1018.21 1018.26 1018.35 1018.48 1018.58 1018.76 1018.91 1019.02 1019.03 1019.05 1019.34 1019.63 1019.75 1019.95 1019.91
1020.09 1020.07 1020.28 1020.38 1020.15 1020.23 1020.37 1020.59 1020.73 1020.94 1020.97 1020.76 1020.90 1020.82 1020.90 1020.68 1020.59 1020.57 1020.50 1020.50 1020.52 1020.37 1020.23 1020.01 1019.86 1019.67 1019.42 1019.04 1018.93 1019.04 1019.09 1018.96 1018.94 1019.19 1019.43 1019.70 1019.82 1019.86 1019.90 1020.03 1020.20 1020.29 1020.36 1020.48
Wind_Speed
10 13 13 12 16 12 9 8 4 4 7 12 12 16 8 9 12 10 14 13 12 4 19 16 14 15 16 16 15 17 16 14 13 10 9 8 7 7 7 7 6 6 5 5
8 12 13 13 16 14 9 10 8 8 10 12 6 9 15 9 15 11 11 15 14 16 4 18 14 15 16 15 14 16 16 15 12 8 9 8 8 7 7 7 7 6 5 6
6 9 11 10 8 9 9 7 6 1 10 23 11 13 10 11 12 5 11 13 13 10 10 7 5 11 15 15 13 14 15 14 13 12 8 8 8 8 8 8 6 6 7 5
4 7 4 9 11 13 8 22 22 11 9 15 21 11 10 8 8 12 13 13 13 11 12 12 7 7 8 10 12 13 13 13 12 12 10 8 8 8 8 6 8 6 6 7
1 3 9 12 7 9 8 16 23 14 17 6 16 16 13 10 11 11 12 11 10 11 9 10 9 5 8 8 10 12 13 13 13 13 11 10 9 9 8 7 6 6 5 9
5 3 5 5 16 16 12 8 18 13 12 19 11 10 6 12 14 12 11 12 14 15 9 13 14 15 7 7 7 8 11 11 11 12 12 11 11 10 6 6 5 5 6 8
6 5 1 11 14 14 6 3 13 13 14 7 6 5 6 11 11 10 10 11 13 13 8 11 12 14 5 7 8 7 8 11 11 11 12 10 10 6 8 7 6 6 7 7
4 3 6 17 9 8 4 4 7 12 13 12 10 12 12 11 10 11 10 12 12 10 10 12 14 15 10 5 3 8 8 9 10 10 10 9 12 9 8 8 8 7 9 7
3 4 3 10 12 6 5 6 7 8 11 14 10 11 10 11 11 11 10 8 8 8 9 11 15 14 13 12 11 5 8 8 9 9 8 9 11 10 8 8 7 8 8 8
2 12 9 12 13 13 14 11 7 9 8 13 8 9 9 10 11 11 12 13 12 12 11 13 14 14 13 14 13 5 6 7 7 10 9 7 8 9 9 9 8 9 9 7
4 11 6 14 13 14 14 16 13 7 9 12 9 10 9 9 8 9 10 12 13 13 14 14 13 13 14 14 13 5 2 6 7 7 9 7 7 5 9 9 9 10 9 10
3 10 6 9 9 13 11 13 9 10 7 11 15 8 10 9 7 8 11 13 13 14 14 16 17 15 13 13 10 7 5 4 5 6 7 7 7 4 9 6 2 9 17 13
4 14 14 16 8 11 10 12 13 7 9 6 10 11 7 7 4 5 7 9 11 10 11 15 16 11 13 13 8 7 6 8 4 6 7 8 8 8 7 4 13 10 11 15
8 10 11 2 4 8 9 12 14 2 6 8 9 8 8 8 7 8 6 6 7 8 9 6 7 10 14 14 9 10 11 10 7 5 6 8 9 7 6 7 6 5 14 9
10 10 3 4 6 6 8 7 13 9 5 7 8 8 8 9 9 7 8 9 8 8 10 10 11 13 13 14 8 13 13 10 9 8 4 6 7 9 9 7 7 7 6 9
11 7 6 5 5 6 8 11 9 8 8 7 6 7 7 10 10 9 6 8 10 9 10 11 10 11 12 12 9 7 10 21 15 8 10 10 4 4 8 9 9 6 5 6
5 5 8 7 7 7 6 7 7 7 7 6 6 7 9 8 8 9 9 7 8 9 9 10 11 9 12 13 12 7 8 13 24 12 11 8 10 11 10 7 8 7 4 4
5 5 8 8 7 6 5 8 9 9 4 4 9 7 8 6 8 7 8 9 7 8 11 10 13 11 11 12 11 9 7 8 18 9 10 11 9 12 11 8 8 8 6 5
10 7 8 9 6 6 9 10 8 7 10 5 7 11 11 10 6 6 6 8 9 9 10 11 17 14 12 14 11 9 10 15 10 7 8 6 9 9 7 7 8 7 6 7
6 8 5 5 7 13 13 11 11 8 10 5 8 10 9 7 7 5 6 8 7 5 7 10 11 11 11 10 12 10 11 11 10 9 10 10 8 8 6 10 9 9 11 9
9 5 3 2 4 8 9 8 12 9 8 9 9 9 7 6 7 9 8 7 8 8 8 12 11 8 6 7 9 8 9 10 10 10 10 9 10 8 6 5 6 13 12 12
12 11 8 7 5 7 8 10 7 6 5 9 8 8 6 3 6 6 6 5 5 12 7 8 10 14 8 12 9 10 7 9 8 7 8 9 8 9 9 10 12 14 7 6
3 5 4 4 5 6 5 6 7 6 2 3 6 5 3 4 4 4 5 7 5 7 6 9 17 15 9 6 7 8 9 7 6 6 6 7 7 8 8 10 10 8 8 8
4 6 5 1 1 4 4 1 4 4 3 3 4 5 4 4 5 4 4 8 11 5 7 10 15 19 9 5 7 8 9 8 6 8 9 8 7 6 7 7 6 5 5 6
4 2 4 5 4 2 1 2 2 1 3 5 3 4 4 4 3 2 4 4 10 8 6 11 16 16 8 5 7 6 6 7 6 8 8 8 8 8 6 5 5 5 5 5
2 2 2 2 3 4 4 6 6 6 6 4 5 3 3 4 4 4 3 5 5 6 5 5 6 7 9 6 6 6 5 6 6 7 8 7 8 7 6 8 7 6 6 6
5 4 4 2 1 3 4 4 4 5 4 4 4 4 6 5 5 6 6 5 4 4 3 4 5 6 8 6 8 5 3 4 6 6 5 5 5 5 5 5 5 5 5 5
Wind_Direction
316 326 317 313 314 313 236 244 229 277 162 176 181 146 137 94 75 40 322 35 45 44 193 184 179 174 178 180 173 172 175 180 185 175 177 166 171 174 177 198 204 217 206 230
305 297 294 299 301 304 259 254 280 262 31 110 59 29 50 44 67 41 323 26 24 17 144 167 173 171 169 172 165 163 172 181 178 161 168 169 170 171 171 191 203 213 210 218
276 290 313 308 280 300 325 258 268 270 142 107 49 53 53 48 49 28 3 14 25 16 30 37 131 166 171 170 158 164 169 172 169 172 167 168 169 164 177 193 190 200 204 201
293 345 282 255 287 287 289 30 22 58 51 127 120 101 74 65 45 22 16 11 6 1 10 16 6 138 139 152 161 155 164 170 165 169 171 161 163 168 183 173 190 187 196 132
209 279 280 291 17 358 23 31 4 18 40 21 97 80 59 57 51 28 3 358 0 345 356 349 352 327 129 136 147 157 167 170 168 167 166 165 170 169 185 167 183 180 161 143
314 279 247 12 337 319 318 51 344 12 29 354 7 86 55 43 40 16 0 358 350 342 351 23 358 344 149 149 147 157 165 167 162 163 169 172 171 173 174 175 172 167 146 154
253 248 343 338 349 308 49 14 318 15 15 352 33 71 74 41 36 18 358 355 342 341 1 24 6 354 197 149 163 161 145 154 159 165 169 164 163 169 171 167 163 171 137 144
233 256 272 344 39 55 221 160 18 7 14 24 59 52 52 45 26 15 16 358 353 347 353 24 16 10 344 74 271 161 153 155 165 161 170 168 169 172 169 169 168 143 141 138
16 115 74 41 67 60 349 66 57 19 11 6 67 53 39 37 21 10 15 21 4 355 7 22 22 15 354 341 343 191 155 160 162 160 166 160 169 172 172 175 175 157 161 153
357 16 41 36 26 8 12 22 40 44 23 18 42 63 49 35 21 7 6 11 10 15 21 24 18 6 349 328 320 6 164 162 159 159 166 168 170 174 180 186 186 171 164 155
25 17 358 34 21 4 360 9 12 41 31 30 49 71 67 59 24 18 19 13 17 17 8 10 12 4 342 321 322 1 301 168 163 160 176 173 158 192 192 199 194 176 166 160
331 315 335 331 351 10 351 0 350 22 36 29 27 45 56 53 40 30 32 22 20 8 6 4 1 9 327 322 315 333 354 214 168 163 183 173 149 128 55 30 302 185 164 167
281 311 303 294 315 3 345 348 341 341 36 35 41 28 61 56 58 44 45 36 26 16 14 6 359 336 307 315 317 3 5 347 189 180 189 168 174 162 144 45 66 61 176 157
275 277 284 22 6 354 350 338 344 37 51 40 35 32 25 57 52 47 35 63 39 20 15 5 346 331 341 328 332 41 20 11 348 249 199 184 183 174 163 155 145 108 48 68
344 315 265 314 24 9 346 6 357 339 90 56 42 31 32 42 41 47 45 30 45 33 15 4 4 354 345 334 332 50 37 9 7 3 336 213 197 183 173 157 122 119 110 65
314 297 311 39 17 19 17 31 349 337 34 77 60 28 27 57 29 25 32 33 39 26 11 14 359 347 341 343 337 22 61 44 44 35 9 11 335 216 157 122 120 113 110 121
356 34 360 8 18 14 13 41 335 314 4 30 88 61 44 68 45 25 9 6 50 23 8 6 356 350 354 356 11 343 51 58 48 12 31 20 49 325 83 90 99 91 86 112
56 44 34 26 0 339 342 32 351 345 339 37 62 69 59 44 68 42 13 5 6 27 8 1 356 351 4 6 10 18 16 76 70 34 1 18 13 50 19 21 84 93 83 83
58 74 43 10 336 43 49 30 10 348 329 67 58 65 50 30 73 42 29 17 15 22 3 353 0 359 359 4 23 31 34 52 56 69 85 25 48 40 48 50 58 53 96 112
69 61 47 3 28 57 52 23 20 12 327 40 75 80 58 33 27 38 39 32 8 344 351 360 358 357 348 3 40 34 37 42 49 47 48 52 43 44 25 50 51 58 56 16
164 178 117 57 24 50 64 38 26 348 10 13 39 91 91 57 48 29 22 29 350 346 360 2 11 3 346 14 47 54 50 46 45 44 52 46 47 34 23 44 53 62 40 35
165 171 180 159 168 175 169 124 101 304 44 24 7 35 90 114 70 40 21 23 337 349 3 9 7 10 16 41 33 30 46 58 50 51 60 59 53 41 29 33 34 53 51 39
49 110 97 108 135 156 104 132 172 149 72 84 52 41 68 60 75 53 23 345 0 346 19 12 5 15 34 52 51 38 34 41 56 56 63 65 65 59 51 44 49 41 43 28
75 53 34 25 110 91 68 80 101 128 151 97 55 73 75 72 23 27 39 8 12 10 30 22 11 6 30 57 70 42 31 24 40 50 51 62 60 76 72 66 67 51 49 53
3 27 50 350 41 128 257 243 170 227 112 67 143 140 107 66 111 24 19 45 22 14 7 25 12 6 3 29 83 69 47 26 30 47 47 43 35 28 41 76 60 70 43 47
278 75 128 2 30 54 20 33 49 44 25 54 53 43 81 66 18 45 59 64 49 27 9 19 19 13 356 5 54 86 69 49 49 61 63 50 35 21 29 54 55 55 48 38
236 225 160 219 37 101 80 77 65 53 36 15 58 8 50 39 29 22 30 28 32 20 24 38 39 4 356 17 23 39 101 80 69 89 81 76 57 31 32 52 56 41 44 41